BRX2277 ESSA-ESKS

Flight info

Callsign BRX2277
Flight time 0h 53m
Altitude 20000
Route KOGAV5C KOGAV DCT NISGO NISGO1T
Aircraft AT76/M-SDFGIRY/S

Departure

Time 2026-05-05 14:57
Airport Stockholm-Arlanda Airport (ESSA)

Arrival

Time 2026-05-05 15:50
Airport Scandinavian Mountains Airport (ESKS)
Time Latitude Longitude Altitude Speed Heading
2026-05-05 14:40 59.65308 17.93826 134 ft 0 kts 254°
2026-05-05 14:46 59.65311 17.93846 134 ft 4 kts 251°
2026-05-05 14:46 59.65321 17.93895 134 ft 4 kts 242°
2026-05-05 14:46 59.65334 17.93941 134 ft 4 kts 243°
2026-05-05 14:47 59.65341 17.93977 134 ft 4 kts 311°
2026-05-05 14:47 59.65339 17.93981 134 ft 1 kts 345°
2026-05-05 14:47 59.65338 17.93982 134 ft 0 kts 345°
2026-05-05 14:49 59.65343 17.93979 134 ft 3 kts 345°
2026-05-05 14:49 59.65388 17.93956 134 ft 11 kts 346°
2026-05-05 14:50 59.65481 17.93906 134 ft 17 kts 348°
2026-05-05 14:50 59.65596 17.93850 134 ft 16 kts 343°
2026-05-05 14:50 59.65672 17.93746 134 ft 13 kts 276°
2026-05-05 14:50 59.65654 17.93586 134 ft 11 kts 255°
2026-05-05 14:51 59.65634 17.93442 134 ft 10 kts 256°
2026-05-05 14:51 59.65615 17.93283 134 ft 14 kts 256°
2026-05-05 14:51 59.65590 17.93083 134 ft 16 kts 257°
2026-05-05 14:51 59.65560 17.92853 134 ft 18 kts 259°
2026-05-05 14:52 59.65526 17.92596 134 ft 20 kts 252°
2026-05-05 14:52 59.65440 17.92372 134 ft 22 kts 224°
2026-05-05 14:52 59.65298 17.92259 135 ft 24 kts 191°
2026-05-05 14:52 59.65122 17.92189 135 ft 27 kts 190°
2026-05-05 14:53 59.64927 17.92117 134 ft 29 kts 189°
2026-05-05 14:53 59.64720 17.92043 134 ft 31 kts 192°
2026-05-05 14:53 59.64504 17.91964 134 ft 32 kts 192°
2026-05-05 14:53 59.64282 17.91880 134 ft 33 kts 189°
2026-05-05 14:54 59.64060 17.91801 134 ft 30 kts 192°
2026-05-05 14:54 59.63910 17.91757 134 ft 14 kts 191°
2026-05-05 14:54 59.63827 17.91689 135 ft 12 kts 217°
2026-05-05 14:54 59.63770 17.91594 135 ft 10 kts 220°
2026-05-05 14:55 59.63729 17.91499 137 ft 4 kts 253°
2026-05-05 14:55 59.63768 17.91353 143 ft 18 kts 345°
2026-05-05 14:55 59.63862 17.91371 141 ft 0 kts 11°
2026-05-05 14:56 59.63870 17.91374 141 ft 12 kts 11°
2026-05-05 14:56 59.64186 17.91478 138 ft 77 kts
2026-05-05 14:57 59.64895 17.91761 176 ft 126 kts
2026-05-05 14:57 59.65821 17.92073 526 ft 144 kts
2026-05-05 14:57 59.66852 17.92437 1031 ft 156 kts
2026-05-05 14:57 59.67965 17.92346 1418 ft 164 kts 336°
2026-05-05 14:58 59.69032 17.91540 2042 ft 163 kts 336°
2026-05-05 14:58 59.70086 17.90764 2772 ft 163 kts 336°
2026-05-05 14:58 59.71240 17.89934 2954 ft 193 kts 337°
2026-05-05 14:58 59.72596 17.88985 2989 ft 220 kts 338°
2026-05-05 14:59 59.74109 17.87930 3005 ft 237 kts 338°
2026-05-05 14:59 59.75626 17.86899 2995 ft 224 kts 339°
2026-05-05 14:59 59.77063 17.85900 2992 ft 214 kts 338°
2026-05-05 14:59 59.78448 17.84941 3001 ft 207 kts 337°
2026-05-05 15:00 59.79759 17.84045 3207 ft 192 kts 338°
2026-05-05 15:00 59.80577 17.83478 3365 ft 184 kts 337°
2026-05-05 15:00 59.82131 17.82378 4128 ft 173 kts 336°
2026-05-05 15:00 59.83158 17.81236 4553 ft 170 kts 305°
2026-05-05 15:01 59.83510 17.79044 4913 ft 169 kts 279°
2026-05-05 15:01 59.83728 17.76728 5323 ft 171 kts 281°
2026-05-05 15:01 59.83997 17.74459 5791 ft 170 kts 284°
2026-05-05 15:01 59.84332 17.72201 6230 ft 171 kts 287°
2026-05-05 15:02 59.84740 17.69976 6634 ft 172 kts 290°
2026-05-05 15:02 59.85208 17.67770 7036 ft 173 kts 292°
2026-05-05 15:02 59.85713 17.65578 7467 ft 175 kts 293°
2026-05-05 15:02 59.86235 17.63363 7865 ft 177 kts 293°
2026-05-05 15:03 59.86757 17.61133 8284 ft 178 kts 293°
2026-05-05 15:03 59.87280 17.58893 8702 ft 179 kts 293°
2026-05-05 15:03 59.87811 17.56628 9126 ft 180 kts 292°
2026-05-05 15:03 59.88336 17.54358 9574 ft 181 kts 292°
2026-05-05 15:04 59.88863 17.52069 9960 ft 182 kts 292°
2026-05-05 15:04 59.89389 17.49764 10329 ft 183 kts 292°
2026-05-05 15:04 59.89919 17.47441 10712 ft 184 kts 292°
2026-05-05 15:04 59.90448 17.45114 11088 ft 185 kts 292°
2026-05-05 15:05 59.91508 17.40434 11850 ft 187 kts 292°
2026-05-05 15:05 59.92044 17.38052 12191 ft 189 kts 292°
2026-05-05 15:05 59.92586 17.35658 12563 ft 190 kts 292°
2026-05-05 15:06 59.93128 17.33253 12921 ft 191 kts 292°
2026-05-05 15:06 59.93674 17.30829 13290 ft 192 kts 292°
2026-05-05 15:06 59.94225 17.28387 13648 ft 193 kts 291°
2026-05-05 15:06 59.94768 17.25984 14007 ft 191 kts 291°
2026-05-05 15:07 59.95312 17.23587 14390 ft 188 kts 290°
2026-05-05 15:07 59.95852 17.21227 14786 ft 185 kts 289°
2026-05-05 15:07 59.96374 17.18893 15162 ft 182 kts 288°
2026-05-05 15:07 59.96887 17.16610 15538 ft 179 kts 288°
2026-05-05 15:08 59.97405 17.14364 15901 ft 177 kts 287°
2026-05-05 15:08 59.97909 17.12151 16260 ft 174 kts 286°
2026-05-05 15:08 59.98408 17.09959 16616 ft 171 kts 285°
2026-05-05 15:08 59.98899 17.07809 16962 ft 169 kts 284°
2026-05-05 15:09 59.99388 17.05695 17306 ft 166 kts 284°
2026-05-05 15:09 59.99872 17.03614 17628 ft 164 kts 283°
2026-05-05 15:09 60.00332 17.01548 17943 ft 161 kts 282°
2026-05-05 15:09 60.00789 16.99514 18254 ft 160 kts 282°
2026-05-05 15:10 60.01241 16.97519 18479 ft 160 kts 282°
2026-05-05 15:10 60.01698 16.95493 18705 ft 160 kts 282°
2026-05-05 15:10 60.02163 16.93467 18921 ft 160 kts 282°
2026-05-05 15:10 60.02623 16.91435 19136 ft 160 kts 281°
2026-05-05 15:11 60.03080 16.89394 19348 ft 160 kts 281°
2026-05-05 15:11 60.03535 16.87356 19554 ft 161 kts 281°
2026-05-05 15:11 60.03992 16.85294 19703 ft 164 kts 281°
2026-05-05 15:11 60.04460 16.83166 19782 ft 170 kts 281°
2026-05-05 15:12 60.04942 16.80950 19852 ft 178 kts 282°
2026-05-05 15:12 60.05432 16.78622 19841 ft 185 kts 282°
2026-05-05 15:12 60.05932 16.76200 19841 ft 191 kts 282°
2026-05-05 15:12 60.06443 16.73742 19839 ft 196 kts 282°
2026-05-05 15:13 60.06969 16.71185 19839 ft 201 kts 283°
2026-05-05 15:13 60.07520 16.68581 19834 ft 204 kts 283°
2026-05-05 15:13 60.08086 16.65948 19828 ft 207 kts 283°
2026-05-05 15:13 60.08663 16.63287 19832 ft 209 kts 284°
2026-05-05 15:14 60.09244 16.60604 19832 ft 211 kts 284°
2026-05-05 15:14 60.09832 16.57895 19837 ft 213 kts 284°
2026-05-05 15:14 60.10423 16.55173 19831 ft 214 kts 284°
2026-05-05 15:14 60.11014 16.52441 19831 ft 214 kts 284°
2026-05-05 15:15 60.11610 16.49698 19835 ft 215 kts 284°
2026-05-05 15:15 60.12207 16.46941 19829 ft 215 kts 284°
2026-05-05 15:15 60.12801 16.44184 19842 ft 216 kts 284°
2026-05-05 15:15 60.13397 16.41420 19840 ft 216 kts 284°
2026-05-05 15:16 60.13997 16.38649 19839 ft 217 kts 284°
2026-05-05 15:16 60.14595 16.35870 19834 ft 217 kts 284°
2026-05-05 15:16 60.15192 16.33088 19833 ft 217 kts 284°
2026-05-05 15:16 60.15789 16.30307 19831 ft 217 kts 284°
2026-05-05 15:17 60.16388 16.27523 19845 ft 217 kts 284°
2026-05-05 15:17 60.16985 16.24739 19835 ft 217 kts 284°
2026-05-05 15:17 60.17581 16.21952 19837 ft 217 kts 284°
2026-05-05 15:17 60.18174 16.19159 19874 ft 217 kts 284°
2026-05-05 15:18 60.18762 16.16395 19849 ft 219 kts 284°
2026-05-05 15:18 60.19359 16.13583 19844 ft 219 kts 284°
2026-05-05 15:18 60.19959 16.10766 19841 ft 219 kts 284°
2026-05-05 15:18 60.20558 16.07947 19841 ft 219 kts 284°
2026-05-05 15:19 60.21153 16.05137 19850 ft 219 kts 284°
2026-05-05 15:19 60.21754 16.02315 19846 ft 219 kts 284°
2026-05-05 15:19 60.22351 15.99491 19839 ft 219 kts 284°
2026-05-05 15:19 60.22946 15.96668 19839 ft 219 kts 284°
2026-05-05 15:20 60.23543 15.93841 19843 ft 219 kts 284°
2026-05-05 15:20 60.24139 15.91017 19838 ft 219 kts 284°
2026-05-05 15:20 60.24735 15.88199 19836 ft 219 kts 284°
2026-05-05 15:20 60.25327 15.85380 19835 ft 218 kts 284°
2026-05-05 15:21 60.25913 15.82602 19843 ft 218 kts 284°
2026-05-05 15:21 60.26502 15.79781 19837 ft 218 kts 284°
2026-05-05 15:21 60.27091 15.76961 19839 ft 218 kts 284°
2026-05-05 15:21 60.27680 15.74149 19833 ft 218 kts 284°
2026-05-05 15:22 60.28269 15.71333 19836 ft 218 kts 284°
2026-05-05 15:22 60.28855 15.68516 19835 ft 218 kts 284°
2026-05-05 15:22 60.29445 15.65688 19835 ft 218 kts 284°
2026-05-05 15:22 60.30029 15.62870 19831 ft 219 kts 284°
2026-05-05 15:23 60.30618 15.60041 19831 ft 218 kts 284°
2026-05-05 15:23 60.31200 15.57205 19858 ft 219 kts 285°
2026-05-05 15:23 60.31787 15.54357 19837 ft 220 kts 285°
2026-05-05 15:23 60.32374 15.51505 19832 ft 220 kts 285°
2026-05-05 15:24 60.32964 15.48655 19833 ft 220 kts 285°
2026-05-05 15:24 60.33552 15.45800 19835 ft 221 kts 285°
2026-05-05 15:24 60.34140 15.42942 19826 ft 221 kts 285°
2026-05-05 15:24 60.34729 15.40082 19831 ft 220 kts 285°
2026-05-05 15:25 60.35118 15.38184 19831 ft 220 kts 285°
2026-05-05 15:25 60.35896 15.34398 19830 ft 220 kts 285°
2026-05-05 15:25 60.36482 15.31533 19834 ft 220 kts 285°
2026-05-05 15:25 60.37065 15.28674 19830 ft 220 kts 285°
2026-05-05 15:26 60.37461 15.26740 19836 ft 220 kts 285°
2026-05-05 15:26 60.38040 15.23916 19830 ft 220 kts 285°
2026-05-05 15:26 60.38624 15.21054 19824 ft 220 kts 285°
2026-05-05 15:26 60.39205 15.18199 19839 ft 219 kts 285°
2026-05-05 15:27 60.39784 15.15351 19838 ft 219 kts 285°
2026-05-05 15:27 60.40361 15.12501 19837 ft 218 kts 285°
2026-05-05 15:27 60.40937 15.09663 19838 ft 218 kts 285°
2026-05-05 15:27 60.41510 15.06829 19847 ft 218 kts 285°
2026-05-05 15:28 60.42084 15.03977 19841 ft 219 kts 285°
2026-05-05 15:28 60.42659 15.01127 19850 ft 219 kts 285°
2026-05-05 15:28 60.43234 14.98270 19852 ft 220 kts 285°
2026-05-05 15:28 60.43807 14.95393 19870 ft 220 kts 285°
2026-05-05 15:29 60.44385 14.92508 19870 ft 222 kts 285°
2026-05-05 15:29 60.44968 14.89602 19859 ft 222 kts 285°
2026-05-05 15:29 60.45549 14.86704 19853 ft 222 kts 285°
2026-05-05 15:29 60.46128 14.83804 19861 ft 222 kts 285°
2026-05-05 15:30 60.46700 14.80932 19859 ft 222 kts 285°
2026-05-05 15:30 60.47281 14.78025 19860 ft 223 kts 285°
2026-05-05 15:30 60.47861 14.75112 19860 ft 223 kts 285°
2026-05-05 15:30 60.48441 14.72199 19862 ft 223 kts 285°
2026-05-05 15:31 60.49021 14.69278 19854 ft 223 kts 285°
2026-05-05 15:31 60.49600 14.66348 19856 ft 223 kts 286°
2026-05-05 15:31 60.50180 14.63423 19854 ft 223 kts 285°
2026-05-05 15:31 60.50756 14.60499 19853 ft 223 kts 285°
2026-05-05 15:32 60.51333 14.57576 19857 ft 223 kts 285°
2026-05-05 15:32 60.51911 14.54650 19857 ft 223 kts 285°
2026-05-05 15:32 60.52485 14.51731 19857 ft 223 kts 285°
2026-05-05 15:32 60.53059 14.48807 19861 ft 223 kts 285°
2026-05-05 15:33 60.53636 14.45872 19861 ft 223 kts 285°
2026-05-05 15:33 60.54209 14.42946 19860 ft 223 kts 285°
2026-05-05 15:33 60.54786 14.40007 19859 ft 223 kts 285°
2026-05-05 15:33 60.55359 14.37073 19861 ft 223 kts 285°
2026-05-05 15:34 60.55932 14.34142 19871 ft 223 kts 286°
2026-05-05 15:34 60.56513 14.31232 19867 ft 221 kts 287°
2026-05-05 15:34 60.57062 14.28375 19863 ft 219 kts 286°
2026-05-05 15:34 60.57630 14.25487 19896 ft 222 kts 288°
2026-05-05 15:35 60.58203 14.22537 19880 ft 227 kts 287°
2026-05-05 15:35 60.58773 14.19506 19872 ft 231 kts 287°
2026-05-05 15:35 60.59352 14.16427 19869 ft 235 kts 287°
2026-05-05 15:35 60.59956 14.13256 19588 ft 248 kts 288°
2026-05-05 15:36 60.60607 14.09860 19141 ft 264 kts 288°
2026-05-05 15:36 60.61289 14.06361 18534 ft 268 kts 289°
2026-05-05 15:36 60.61985 14.02806 17874 ft 272 kts 289°
2026-05-05 15:36 60.62686 13.99186 17160 ft 276 kts 289°
2026-05-05 15:37 60.63386 13.95521 16444 ft 279 kts 289°
2026-05-05 15:37 60.64087 13.91821 15764 ft 281 kts 289°
2026-05-05 15:37 60.64792 13.88112 15092 ft 279 kts 290°
2026-05-05 15:37 60.65490 13.84446 14433 ft 277 kts 290°
2026-05-05 15:38 60.66184 13.80790 13788 ft 275 kts 290°
2026-05-05 15:38 60.66872 13.77152 13090 ft 274 kts 290°
2026-05-05 15:38 60.67554 13.73544 12424 ft 267 kts 290°
2026-05-05 15:38 60.68194 13.70168 11971 ft 255 kts 290°
2026-05-05 15:39 60.68826 13.66819 11509 ft 250 kts 290°
2026-05-05 15:39 60.69443 13.63539 11118 ft 244 kts 290°
2026-05-05 15:39 60.70043 13.60323 10765 ft 240 kts 290°
2026-05-05 15:39 60.70637 13.57151 10427 ft 237 kts 290°
2026-05-05 15:40 60.71455 13.54320 10099 ft 232 kts 314°
2026-05-05 15:40 60.72668 13.52174 9762 ft 231 kts 319°
2026-05-05 15:40 60.73911 13.50116 9394 ft 229 kts 319°
2026-05-05 15:40 60.75137 13.48016 9037 ft 231 kts 317°
2026-05-05 15:41 60.76343 13.45820 8680 ft 232 kts 316°
2026-05-05 15:41 60.77531 13.43585 8327 ft 232 kts 315°
2026-05-05 15:41 60.78720 13.41341 7978 ft 232 kts 315°
2026-05-05 15:41 60.79905 13.39113 7626 ft 232 kts 315°
2026-05-05 15:42 60.81091 13.36863 7289 ft 232 kts 315°
2026-05-05 15:42 60.82278 13.34621 6955 ft 232 kts 315°
2026-05-05 15:42 60.83467 13.32377 6622 ft 232 kts 315°
2026-05-05 15:42 60.84641 13.30164 6287 ft 232 kts 316°
2026-05-05 15:43 60.85825 13.27924 5941 ft 232 kts 316°
2026-05-05 15:43 60.87013 13.25671 5587 ft 232 kts 316°
2026-05-05 15:43 60.88194 13.23438 5360 ft 228 kts 315°
2026-05-05 15:43 60.89340 13.21263 5233 ft 221 kts 315°
2026-05-05 15:44 60.90459 13.19166 5100 ft 215 kts 318°
2026-05-05 15:44 60.91611 13.17235 4950 ft 212 kts 319°
2026-05-05 15:44 60.92783 13.15401 4819 ft 212 kts 322°
2026-05-05 15:44 60.93999 13.13715 4752 ft 210 kts 325°
2026-05-05 15:45 60.95230 13.12121 4721 ft 208 kts 325°
2026-05-05 15:45 60.96466 13.10529 4706 ft 212 kts 325°
2026-05-05 15:45 60.97712 13.08879 4681 ft 213 kts 324°
2026-05-05 15:45 60.98954 13.07203 4688 ft 214 kts 324°
2026-05-05 15:46 61.00200 13.05493 4680 ft 216 kts 324°
2026-05-05 15:46 61.01458 13.03779 4678 ft 220 kts 325°
2026-05-05 15:46 61.02743 13.02055 4675 ft 218 kts 324°
2026-05-05 15:46 61.04019 13.00346 4530 ft 221 kts 324°
2026-05-05 15:47 61.05310 12.98573 4202 ft 220 kts 324°
2026-05-05 15:47 61.06133 12.97473 3999 ft 203 kts 324°
2026-05-05 15:47 61.07592 12.95486 3648 ft 174 kts 323°
2026-05-05 15:47 61.08540 12.94189 3418 ft 154 kts 323°
2026-05-05 15:48 61.09399 12.93026 3205 ft 141 kts 324°
2026-05-05 15:48 61.10178 12.91993 3031 ft 126 kts 322°
2026-05-05 15:48 61.10878 12.91014 2852 ft 118 kts 322°
2026-05-05 15:48 61.11544 12.90093 2684 ft 117 kts 323°
2026-05-05 15:49 61.12229 12.89167 2508 ft 115 kts 323°
2026-05-05 15:49 61.12889 12.88288 2366 ft 112 kts 324°
2026-05-05 15:49 61.13539 12.87399 2223 ft 112 kts 322°
2026-05-05 15:49 61.14203 12.86497 2058 ft 114 kts 324°
2026-05-05 15:50 61.14868 12.85609 1854 ft 112 kts 323°
2026-05-05 15:50 61.15508 12.84731 1684 ft 109 kts 323°
2026-05-05 15:50 61.16125 12.83875 1640 ft 101 kts 323°
2026-05-05 15:50 61.16546 12.83279 1632 ft 27 kts 322°
2026-05-05 15:51 61.16583 12.83260 1632 ft 9 kts 52°
2026-05-05 15:51 61.16510 12.83362 1633 ft 30 kts 150°
2026-05-05 15:51 61.16315 12.83622 1628 ft 32 kts 145°
2026-05-05 15:51 61.16143 12.83850 1633 ft 27 kts 148°
2026-05-05 15:52 61.16006 12.84044 1633 ft 25 kts 146°
2026-05-05 15:52 61.15859 12.84242 1627 ft 26 kts 147°
2026-05-05 15:52 61.15749 12.84198 1628 ft 11 kts 237°
2026-05-05 15:52 61.15715 12.84087 1629 ft 8 kts 236°
2026-05-05 15:53 61.15684 12.84036 1631 ft 4 kts 168°
2026-05-05 15:53 61.15650 12.84057 1632 ft 2 kts 210°
2026-05-05 15:53 61.15647 12.84046 1632 ft 1 kts 236°
2026-05-05 15:53 61.15629 12.84062 1632 ft 8 kts 130°
2026-05-05 15:54 61.15573 12.84163 1631 ft 3 kts 185°
2026-05-05 15:54 61.15568 12.84155 1631 ft 1 kts 212°
2026-05-05 15:54 61.15562 12.84148 1631 ft 0 kts 216°
2026-05-05 15:55 61.15562 12.84147 1631 ft 0 kts 214°
2026-05-05 15:55 61.15558 12.84138 1632 ft 0 kts 238°
2026-05-05 15:55 61.15556 12.84134 1632 ft 2 kts 228°
2026-05-05 15:55 61.15558 12.84104 1633 ft 2 kts 307°
2026-05-05 15:56 61.15563 12.84077 1633 ft 3 kts 283°
2026-05-05 15:56 61.15563 12.84076 1633 ft 0 kts 283°